TimeAST,TemperatureF,Dew PointF,Humidity,Sea Level PressureIn,VisibilityMPH,Wind Direction,Wind SpeedMPH,Gust SpeedMPH,PrecipitationIn,Events,Conditions,WindDirDegrees,DateUTC
12:00 AM,80.6,77.0,89,29.86,6.2,East,8.1,-,N/A,,Scattered Clouds,90,2012-10-11 04:00:00
1:00 AM,80.6,75.2,84,29.86,6.2,East,9.2,-,N/A,,Scattered Clouds,80,2012-10-11 05:00:00
2:00 AM,81,75,78,29.83,25,East,6.9,,,,Partly Cloudy,80,2012-10-11 06:00:00
2:00 AM,80.6,75.2,84,29.83,6.2,East,6.9,-,N/A,,Scattered Clouds,80,2012-10-11 06:00:00
3:00 AM,80.6,75.2,84,29.80,6.2,ENE,6.9,-,N/A,,Scattered Clouds,70,2012-10-11 07:00:00
4:00 AM,80.6,75.2,84,29.80,6.2,East,8.1,-,N/A,,Scattered Clouds,80,2012-10-11 08:00:00
5:00 AM,80,75,82,29.82,25,East,6.9,,,,Partly Cloudy,90,2012-10-11 09:00:00
5:00 AM,80.6,75.2,84,29.80,6.2,East,6.9,-,N/A,,Scattered Clouds,90,2012-10-11 09:00:00
6:00 AM,80.6,75.2,84,29.83,6.2,East,5.8,-,N/A,,Scattered Clouds,80,2012-10-11 10:00:00
7:00 AM,80.6,75.2,84,29.83,6.2,East,5.8,-,N/A,,Scattered Clouds,80,2012-10-11 11:00:00
8:00 AM,85,76,67,29.87,31,East,5.8,,,,Partly Cloudy,90,2012-10-11 12:00:00
8:00 AM,84.2,75.2,74,29.86,6.2,East,6.9,-,N/A,,Scattered Clouds,90,2012-10-11 12:00:00
9:00 AM,86.0,75.2,70,29.89,6.2,East,5.8,-,N/A,,Partly Cloudy,80,2012-10-11 13:00:00
10:00 AM,87.8,75.2,66,29.89,6.2,East,5.8,-,N/A,,Scattered Clouds,80,2012-10-11 14:00:00
11:00 AM,88,76,60,29.90,31,ENE,8.1,,,,Partly Cloudy,70,2012-10-11 15:00:00
11:00 AM,87.8,75.2,66,29.89,6.2,East,6.9,-,N/A,,Scattered Clouds,80,2012-10-11 15:00:00
12:00 PM,87.8,75.2,66,29.86,6.2,ENE,6.9,-,N/A,,Scattered Clouds,60,2012-10-11 16:00:00
1:00 PM,87.8,75.2,66,29.86,6.2,ENE,8.1,-,N/A,,Scattered Clouds,60,2012-10-11 17:00:00
2:00 PM,83,74,69,29.82,31,East,5.8,,,Thunderstorm,Light Thunderstorm,90,2012-10-11 18:00:00
2:00 PM,82.4,75.2,79,29.80,6.2,East,5.8,-,N/A,,Scattered Clouds,90,2012-10-11 18:00:00
3:00 PM,86.0,73.4,66,29.80,6.2,East,6.9,-,N/A,,Scattered Clouds,90,2012-10-11 19:00:00
4:00 PM,86.0,75.2,70,29.77,6.2,ENE,5.8,-,N/A,,Scattered Clouds,70,2012-10-11 20:00:00
5:00 PM,86,74,61,29.78,31,ENE,8.1,,,,Scattered Clouds,70,2012-10-11 21:00:00
5:00 PM,86.0,75.2,70,29.77,6.2,ENE,8.1,-,N/A,,Partly Cloudy,70,2012-10-11 21:00:00
6:00 PM,84.2,75.2,74,29.77,6.2,ENE,8.1,-,N/A,,Partly Cloudy,70,2012-10-11 22:00:00
7:00 PM,82.4,75.2,79,29.80,6.2,ENE,9.2,-,N/A,,Partly Cloudy,70,2012-10-11 23:00:00
8:00 PM,83,76,75,29.83,31,ENE,9.2,,,,Scattered Clouds,70,2012-10-12 00:00:00
8:00 PM,82.4,77.0,84,29.83,6.2,ENE,9.2,-,N/A,,Partly Cloudy,70,2012-10-12 00:00:00
9:00 PM,82.4,75.2,79,29.83,6.2,ENE,12.7,-,N/A,,Partly Cloudy,60,2012-10-12 01:00:00
10:00 PM,82.4,75.2,79,29.86,6.2,ENE,10.4,-,N/A,,Partly Cloudy,70,2012-10-12 02:00:00
11:00 PM,80,77,88,29.86,31,East,9.2,,,,Partly Cloudy,80,2012-10-12 03:00:00
11:00 PM,80.6,77.0,89,29.86,6.2,East,9.2,-,N/A,,Partly Cloudy,80,2012-10-12 03:00:00